Terminal Aerodrome Forecast
Issued by NWS

Home | Current Version | Previous Version | Text Only | Print | Product List | Glossary On
Versions: 1 2 3 4 5 6 7 8 9 10 11 12
000
FTUS42 TJSJ 282337
TAFIST
TAF
TIST 282337Z 2900/2924 08008KT P6SM VCSH SCT025 SCT050
     FM291300 11015KT P6SM VCTS SCT030CB BKN040
     FM292300 09008KT P6SM FEW025=

USA.gov is the U.S. government's official web portal to all federal, state and local government web resources and services.